IK4PKL Weather Reports


Display with metric or nautical units.
time (UTC)temp
F
wind
direction
speed
MPH
gust
MPH
rain 1hr
in
rain 24hr
in
rain mn
in
humidity
%
barometer
mb
20260507070007 67 291 1.0 3.0 0.00 0.01 0.00 58 1014.8
20260507065503 67 296 1.0 3.0 0.00 0.01 0.00 60 1014.8
20260507065003 65 30 2.0 5.0 0.00 0.01 0.00 64 1014.7
20260507064503 65 53 3.0 6.0 0.00 0.01 0.00 67 1014.8
20260507064004 64 70 3.0 6.0 0.00 0.01 0.00 70 1014.9
20260507063716 64 69 3.0 6.0 0.00 0.01 0.00 72 1014.7
20260507063005 62 52 3.0 6.0 0.00 0.01 0.00 74 1014.8
20260507062503 63 29 3.0 6.0 0.00 0.01 0.00 75 1014.7
20260507062003 63 2 3.0 6.0 0.00 0.01 0.00 75 1014.7
20260507061503 63 340 3.0 6.0 0.00 0.01 0.00 76 1014.7
20260507061003 63 333 2.0 6.0 0.00 0.01 0.00 76 1014.8
20260507060503 62 356 2.0 6.0 0.00 0.01 0.00 76 1014.8
20260507060003 62 116 3.0 8.0 0.00 0.01 0.00 80 1014.6
20260507055503 60 122 4.0 8.0 0.00 0.01 0.00 83 1014.6
20260507055003 61 121 3.0 8.0 0.00 0.01 0.00 81 1014.7
20260507054503 61 193 3.0 8.0 0.00 0.01 0.00 81 1014.7
20260507054003 60 228 5.0 10.0 0.00 0.01 0.00 80 1014.4
20260507053504 60 232 6.0 10.0 0.00 0.01 0.00 82 1014.3
20260507053003 60 237 5.0 9.0 0.00 0.01 0.00 84 1014.4
20260507052505 59 264 4.0 9.0 0.00 0.01 0.00 86 1014.2
20260507052005 59 297 3.0 7.0 0.00 0.01 0.00 87 1014.5
20260507051715 59 309 3.0 7.0 0.00 0.01 0.00 86 1014.3
20260507051003 60 305 2.0 5.0 0.00 0.01 0.00 86 1014.1
20260507050503 60 359 1.0 4.0 0.00 0.01 0.00 85 1014.4
20260507050003 60 8 2.0 4.0 0.00 0.01 0.00 85 1014.3
20260507045504 60 344 2.0 5.0 0.00 0.01 0.00 86 1013.9
20260507045214 60 343 3.0 6.0 0.00 0.01 0.00 86 1014.0
20260507044506 61 309 2.0 6.0 0.00 0.02 0.00 86 1013.8
20260507044004 60 195 2.0 6.0 0.00 0.03 0.00 85 1013.8
20260507043713 60 172 3.0 7.0 0.00 0.03 0.00 85 1013.6
20260507043005 60 170 6.0 9.0 0.00 0.04 0.00 87 1013.6
20260507042503 60 172 6.0 9.0 0.00 0.04 0.00 87 1013.6
20260507042003 60 169 6.0 9.0 0.00 0.05 0.00 87 1013.9
20260507041503 60 166 6.0 9.0 0.00 0.05 0.00 87 1013.8
20260507041003 60 166 6.0 10.0 0.00 0.05 0.00 86 1013.7
20260507040713 60 166 6.0 10.0 0.00 0.05 0.00 86 1013.6
20260507040008 60 159 5.0 10.0 0.00 0.05 0.00 86 1013.5
20260507035713 60 152 5.0 8.0 0.00 0.05 0.00 86 1013.5
20260507035004 60 148 5.0 8.0 0.00 0.05 0.00 85 1013.5
20260507034503 60 168 5.0 9.0 0.00 0.05 0.00 85 1013.4
20260507034003 60 166 5.0 9.0 0.00 0.05 0.00 85 1013.3
20260507033504 59 155 6.0 9.0 0.00 0.05 0.00 88 1013.4
20260507033003 59 160 7.0 10.0 0.00 0.05 0.00 88 1013.4
20260507032503 59 160 7.0 10.0 0.00 0.05 0.00 88 1013.6
20260507032004 59 156 6.0 10.0 0.00 0.05 0.00 88 1013.4
20260507031713 59 160 6.0 10.0 0.00 0.05 0.00 88 1013.5
20260507031003 59 158 6.0 10.0 0.00 0.05 0.00 87 1013.6
20260507030713 59 155 5.0 10.0 0.00 0.05 0.00 86 1013.4
20260507030003 60 166 3.0 5.0 0.00 0.05 0.00 83 1013.4
20260507025712 60 191 2.0 6.0 0.00 0.05 0.00 83 1013.5
20260507025005 60 349 1.0 6.0 0.00 0.05 0.00 83 1013.5
20260507024503 60 152 1.0 5.0 0.00 0.05 0.00 82 1013.4
20260507024004 60 139 2.0 4.0 0.00 0.05 0.00 81 1013.5
20260507023503 61 120 1.0 4.0 0.00 0.05 0.00 82 1013.4
20260507023213 61 346 2.0 6.0 0.00 0.05 0.00 81 1013.4
20260507022503 61 308 2.0 6.0 0.00 0.05 0.00 80 1013.4
20260507022003 61 339 2.0 6.0 0.00 0.05 0.00 80 1013.4
20260507021503 61 360 4.0 6.0 0.00 0.05 0.00 78 1013.4
20260507021005 61 8 3.0 6.0 0.00 0.05 0.00 79 1013.5
20260507020503 62 15 2.0 6.0 0.00 0.05 0.00 80 1013.5
20260507020003 61 350 3.0 9.0 0.00 0.05 0.00 80 1013.4
20260507015503 61 337 3.0 9.0 0.00 0.05 0.00 81 1013.5
20260507015005 62 151 1.0 6.0 0.00 0.05 0.00 80 1013.5
20260507014714 62 100 1.0 5.0 0.00 0.05 0.00 81 1013.3
20260507014003 62 56 2.0 5.0 0.00 0.05 0.00 81 1013.3
20260507013503 62 84 1.0 5.0 0.00 0.05 0.00 81 1013.5
20260507013003 62 90 2.0 6.0 0.00 0.05 0.00 80 1013.4
20260507012503 62 113 3.0 6.0 0.00 0.05 0.00 80 1013.4
20260507012215 62 94 3.0 6.0 0.00 0.05 0.00 80 1013.5
20260507011503 62 356 3.0 6.0 0.00 0.05 0.00 79 1013.5
20260507011213 62 4 3.0 9.0 0.00 0.05 0.00 79 1013.3
20260507010503 62 14 5.0 10.0 0.00 0.05 0.00 79 1013.4
20260507010213 62 12 4.0 10.0 0.00 0.05 0.00 79 1013.3
20260507005505 63 55 2.0 5.0 0.00 0.05 0.00 77 1013.3
20260507005005 63 43 2.0 5.0 0.00 0.05 0.00 76 1013.4
20260507004503 63 2 2.0 5.0 0.00 0.05 0.00 75 1013.3
20260507004005 63 69 3.0 6.0 0.00 0.05 0.00 75 1013.4
20260507003503 63 44 3.0 6.0 0.00 0.05 0.00 75 1013.5
20260507003004 63 13 2.0 6.0 0.00 0.05 0.00 73 1013.3
20260507002503 63 12 2.0 8.0 0.00 0.05 0.00 74 1013.5
20260507002004 63 357 3.0 8.0 0.00 0.05 0.00 73 1013.5
20260507001503 63 357 3.0 8.0 0.00 0.05 0.00 73 1013.3
20260507001005 64 348 3.0 12.0 0.00 0.05 0.00 73 1013.6
20260507000503 64 343 4.0 12.0 0.00 0.05 0.00 72 1013.6
20260507000003 64 326 5.0 11.0 0.00 0.05 0.00 72 1013.5
20260506235503 64 277 5.0 11.0 0.00 0.05 0.00 70 1013.4
20260506235212 65 237 4.0 7.0 0.00 0.05 0.00 67 1013.4
20260506234505 65 244 5.0 9.0 0.00 0.05 0.00 65 1013.4
20260506234003 65 275 6.0 12.0 0.00 0.05 0.00 66 1013.2
20260506233503 65 292 5.0 12.0 0.00 0.05 0.00 67 1013.3
20260506233003 64 248 6.0 11.0 0.00 0.05 0.00 69 1013.5
20260506232503 64 201 7.0 13.0 0.00 0.05 0.00 70 1013.3
20260506232214 64 193 8.0 13.0 0.00 0.05 0.00 70 1013.4
20260506231713 64 184 10.0 13.0 0.00 0.05 0.00 71 1013.3
20260506231005 64 181 12.0 20.0 0.00 0.05 0.00 71 1013.0
20260506230503 65 181 15.0 20.0 0.00 0.05 0.00 69 1013.0
20260506230003 64 180 16.0 19.0 0.00 0.05 0.00 69 1013.3
20260506225503 65 183 15.0 19.0 0.00 0.05 0.00 69 1013.3
20260506225003 64 183 14.0 19.0 0.00 0.05 0.00 70 1013.2
20260506224503 64 181 14.0 22.0 0.00 0.05 0.00 70 1013.3
20260506224003 65 184 16.0 22.0 0.00 0.05 0.00 69 1013.4
20260506223503 65 184 14.0 22.0 0.00 0.05 0.00 68 1013.2
20260506223003 64 183 13.0 19.0 0.00 0.05 0.00 71 1013.3
20260506222503 64 177 13.0 17.0 0.00 0.05 0.00 71 1013.3
20260506222214 64 175 12.0 17.0 0.00 0.05 0.00 71 1013.4
20260506221504 64 181 11.0 14.0 0.00 0.05 0.00 71 1013.4
20260506221214 64 182 11.0 14.0 0.00 0.05 0.00 70 1013.5
20260506220504 64 180 10.0 14.0 0.00 0.05 0.00 70 1013.5
20260506220216 64 178 9.0 13.0 0.00 0.05 0.00 71 1013.3
20260506215713 64 172 9.0 12.0 0.00 0.05 0.05 72 1013.2
20260506215006 64 169 8.0 12.0 0.00 0.05 0.05 72 1013.3
20260506214503 64 171 8.0 12.0 0.00 0.05 0.05 73 1013.2
20260506214006 62 161 7.0 10.0 0.00 0.05 0.05 76 1013.4
20260506213503 62 157 7.0 9.0 0.00 0.05 0.05 79 1013.3
20260506213005 63 155 7.0 9.0 0.00 0.05 0.05 77 1013.4
20260506212503 63 153 7.0 9.0 0.00 0.05 0.05 75 1013.3
20260506212003 63 153 7.0 10.0 0.00 0.06 0.05 75 1013.3
20260506211503 64 148 5.0 10.0 0.00 0.07 0.05 75 1013.4
20260506211003 64 133 2.0 7.0 0.00 0.07 0.05 76 1013.5
20260506210503 64 57 1.0 3.0 0.00 0.07 0.05 76 1013.4
20260506210003 64 348 1.0 2.0 0.00 0.08 0.05 76 1013.5
20260506205503 64 13 2.0 4.0 0.00 0.09 0.05 76 1013.5
20260506205003 64 50 2.0 4.0 0.00 0.11 0.05 75 1013.4
20260506204714 64 72 2.0 4.0 0.00 0.12 0.05 75 1013.4
20260506204213 64 70 2.0 6.0 0.00 0.14 0.05 75 1013.3
20260506203503 64 64 3.0 6.0 0.00 0.16 0.05 74 1013.4
20260506203003 64 56 3.0 6.0 0.00 0.16 0.05 75 1013.3
20260506202503 64 38 4.0 5.0 0.00 0.16 0.05 74 1013.4
20260506202003 65 17 4.0 6.0 0.00 0.16 0.05 74 1013.3
20260506201714 65 10 4.0 6.0 0.00 0.17 0.05 73 1013.2
20260506201003 65 12 3.0 6.0 0.00 0.17 0.05 74 1013.5
20260506200503 65 2 3.0 6.0 0.00 0.18 0.05 74 1013.1
20260506200003 65 5 2.0 4.0 0.00 0.19 0.05 73 1013.2
20260506195503 65 14 3.0 6.0 0.00 0.19 0.05 73 1013.3
20260506195004 65 12 4.0 6.0 0.00 0.20 0.05 73 1013.2
20260506194505 65 7 4.0 7.0 0.00 0.21 0.05 73 1013.1
20260506194213 65 3 4.0 7.0 0.00 0.21 0.05 73 1013.0
20260506193505 65 18 3.0 7.0 0.00 0.21 0.05 73 1013.0
20260506193004 65 11 3.0 7.0 0.00 0.22 0.05 73 1012.8
20260506192503 65 3 3.0 7.0 0.00 0.22 0.05 73 1013.0
20260506192003 65 8 3.0 7.0 0.00 0.22 0.05 73 1012.9
20260506191503 65 356 4.0 7.0 0.00 0.22 0.05 73 1012.9
20260506191003 65 356 5.0 9.0 0.00 0.22 0.05 73 1012.8
20260506190505 65 3 6.0 10.0 0.00 0.22 0.05 73 1012.7
20260506190003 65 358 6.0 10.0 0.00 0.22 0.05 72 1012.5
20260506185503 65 358 6.0 13.0 0.00 0.22 0.05 71 1012.6
20260506185003 65 359 8.0 14.0 0.00 0.22 0.05 71 1012.4
20260506184713 65 360 9.0 14.0 0.00 0.22 0.05 70 1012.4
20260506184003 65 352 10.0 17.0 0.00 0.24 0.05 69 1012.3
20260506183713 65 346 10.0 17.0 0.00 0.25 0.05 69 1012.2
20260506183003 68 328 8.0 16.0 0.00 0.27 0.05 65 1012.2
20260506182505 68 303 5.0 11.0 0.00 0.29 0.05 64 1011.9
20260506182003 68 222 4.0 8.0 0.00 0.32 0.05 63 1011.8
20260506181503 68 199 6.0 13.0 0.00 0.33 0.05 63 1011.8
20260506181003 68 206 9.0 13.0 0.00 0.35 0.05 62 1011.7
20260506180503 68 210 8.0 13.0 0.00 0.38 0.05 62 1011.8
20260506180214 68 201 8.0 12.0 0.00 0.39 0.05 62 1011.6
20260506175503 69 191 8.0 14.0 0.00 0.42 0.05 62 1011.7
20260506175005 69 194 8.0 14.0 0.00 0.43 0.05 61 1011.5
20260506174505 69 193 7.0 11.0 0.00 0.45 0.05 61 1011.6
20260506174003 69 184 7.0 18.0 0.00 0.46 0.05 61 1011.6
20260506173503 69 186 8.0 18.0 0.00 0.47 0.05 60 1011.4
20260506173003 69 189 8.0 13.0 0.00 0.48 0.05 60 1011.3
20260506172503 70 178 9.0 17.0 0.00 0.48 0.05 59 1011.3
20260506172003 70 180 12.0 19.0 0.00 0.49 0.05 59 1011.2
20260506171503 70 184 13.0 19.0 0.00 0.49 0.05 59 1011.3
20260506171005 70 182 13.0 20.0 0.00 0.49 0.05 58 1011.2
20260506170503 70 179 10.0 20.0 0.00 0.49 0.05 58 1011.1
20260506170004 70 175 9.0 18.0 0.00 0.49 0.05 58 1011.0
20260506165505 70 188 12.0 20.0 0.00 0.50 0.05 58 1011.0
20260506165003 70 197 13.0 20.0 0.00 0.50 0.05 57 1010.8
20260506164503 70 189 12.0 20.0 0.00 0.50 0.05 57 1011.1
20260506164003 70 189 11.0 20.0 0.00 0.50 0.05 57 1011.2
20260506163504 70 184 12.0 20.0 0.00 0.50 0.05 57 1011.1
20260506163003 71 181 12.0 20.0 0.00 0.50 0.05 56 1011.1
20260506162503 71 188 10.0 18.0 0.00 0.50 0.05 55 1011.3
20260506162213 71 185 11.0 19.0 0.00 0.50 0.05 56 1011.1
20260506161503 71 179 14.0 26.0 0.00 0.50 0.05 54 1011.2
20260506161003 71 177 15.0 26.0 0.00 0.50 0.05 54 1011.2
20260506160712 71 171 14.0 22.0 0.00 0.50 0.05 54 1011.2
20260506160003 71 172 13.0 21.0 0.00 0.50 0.05 55 1011.3
20260506155503 71 180 16.0 25.0 0.00 0.50 0.05 55 1011.0
20260506155003 72 179 16.0 25.0 0.00 0.50 0.05 54 1011.2
20260506154714 72 169 14.0 23.0 0.00 0.50 0.05 54 1011.2
20260506154003 72 172 13.0 20.0 0.00 0.50 0.05 54 1011.1
20260506153503 72 179 15.0 22.0 0.00 0.50 0.05 53 1011.1
20260506153003 72 175 14.0 22.0 0.00 0.50 0.05 53 1011.1
20260506152504 72 172 14.0 22.0 0.00 0.50 0.05 53 1011.1
20260506152004 72 172 14.0 19.0 0.00 0.50 0.05 55 1011.2
20260506151503 72 174 12.0 19.0 0.00 0.50 0.05 55 1011.2
20260506151003 71 177 11.0 19.0 0.00 0.50 0.05 55 1011.2
20260506150503 71 173 12.0 20.0 0.00 0.50 0.05 55 1011.2
20260506150003 71 175 13.0 20.0 0.00 0.50 0.05 55 1011.1
20260506145503 71 175 11.0 19.0 0.00 0.50 0.05 55 1011.1
20260506145003 71 167 10.0 16.0 0.00 0.50 0.05 57 1011.0
20260506144505 71 172 10.0 16.0 0.00 0.50 0.05 57 1011.0
20260506144003 71 167 10.0 19.0 0.00 0.50 0.05 56 1010.9
20260506143714 71 166 10.0 19.0 0.00 0.50 0.05 56 1011.0
20260506143003 71 179 17.0 29.0 0.00 0.50 0.05 55 1010.9
20260506142503 71 183 20.0 29.0 0.00 0.50 0.05 53 1010.9
20260506142213 72 184 17.0 29.0 0.00 0.50 0.05 53 1011.0
20260506141503 71 183 16.0 24.0 0.00 0.50 0.05 54 1010.9
20260506141003 71 186 16.0 24.0 0.00 0.50 0.05 54 1011.1
20260506140503 71 188 16.0 26.0 0.00 0.50 0.05 55 1011.0
20260506140215 71 188 16.0 26.0 0.00 0.50 0.05 54 1011.2
20260506135503 72 190 14.0 24.0 0.00 0.50 0.05 55 1011.4
20260506135005 71 200 14.0 24.0 0.00 0.50 0.05 53 1011.3
20260506134713 72 194 14.0 23.0 0.00 0.50 0.05 54 1011.5
20260506134003 71 178 13.0 23.0 0.00 0.50 0.05 54 1011.6
20260506133503 71 177 15.0 25.0 0.00 0.50 0.05 54 1011.5
20260506133003 71 174 14.0 25.0 0.00 0.50 0.05 54 1011.5
20260506132713 71 168 13.0 21.0 0.00 0.50 0.05 54 1011.7
20260506132005 71 162 12.0 25.0 0.00 0.50 0.05 52 1011.8
20260506131503 71 167 11.0 25.0 0.00 0.50 0.05 52 1012.0
20260506131003 71 173 12.0 20.0 0.00 0.50 0.05 52 1011.9
20260506130504 71 172 11.0 21.0 0.00 0.50 0.05 52 1012.0
20260506130004 70 170 10.0 21.0 0.00 0.50 0.05 51 1012.0
20260506125503 70 172 12.0 21.0 0.00 0.50 0.05 51 1012.0
20260506125005 70 167 13.0 21.0 0.00 0.50 0.05 52 1012.1
20260506124503 70 171 14.0 25.0 0.00 0.50 0.05 52 1012.4
20260506124003 70 182 15.0 25.0 0.00 0.50 0.05 52 1012.2
20260506123503 70 187 16.0 24.0 0.00 0.50 0.05 54 1012.2
20260506123214 70 189 15.0 24.0 0.00 0.50 0.05 53 1012.3
20260506122503 70 180 11.0 23.0 0.00 0.50 0.05 54 1012.0
20260506122003 70 178 11.0 23.0 0.00 0.50 0.05 56 1012.2
20260506121503 71 188 11.0 19.0 0.00 0.50 0.05 56 1012.2
20260506121005 71 202 12.0 21.0 0.00 0.50 0.05 55 1012.1
20260506120503 70 197 13.0 21.0 0.00 0.50 0.05 56 1012.2
20260506120214 70 192 12.0 20.0 0.00 0.50 0.05 55 1012.2
20260506115503 70 184 14.0 22.0 0.00 0.50 0.05 54 1012.3
20260506115003 70 180 15.0 21.0 0.00 0.50 0.05 55 1012.2
20260506114505 70 177 13.0 21.0 0.00 0.50 0.05 56 1012.1
20260506114003 70 174 13.0 21.0 0.00 0.50 0.05 57 1012.1
20260506113505 70 181 13.0 22.0 0.00 0.50 0.05 57 1012.4
20260506113216 70 187 12.0 22.0 0.00 0.50 0.05 57 1012.4
20260506112504 69 184 15.0 24.0 0.00 0.50 0.05 60 1012.4
20260506112214 68 175 15.0 24.0 0.00 0.50 0.05 58 1012.5
20260506111503 69 161 11.0 17.0 0.00 0.50 0.05 60 1012.4
20260506111004 68 182 12.0 19.0 0.00 0.50 0.05 61 1012.8
20260506110503 68 187 13.0 21.0 0.00 0.50 0.05 62 1012.8
20260506110005 68 180 15.0 21.0 0.00 0.50 0.05 61 1012.8
20260506105504 67 177 13.0 21.0 0.00 0.50 0.05 63 1012.8
20260506105005 67 169 13.0 22.0 0.00 0.50 0.05 63 1012.8
20260506104503 67 166 14.0 22.0 0.00 0.50 0.05 63 1012.7
20260506104003 67 168 12.0 24.0 0.00 0.50 0.05 63 1012.9
20260506103503 67 176 11.0 24.0 0.00 0.50 0.05 63 1012.8
20260506103005 67 173 12.0 20.0 0.00 0.50 0.05 63 1012.9
20260506102505 67 175 16.0 27.0 0.00 0.50 0.05 63 1012.8
20260506102213 67 176 17.0 27.0 0.00 0.50 0.05 63 1012.9
20260506101503 67 189 14.0 27.0 0.00 0.50 0.05 63 1012.8
20260506101213 67 193 14.0 23.0 0.00 0.50 0.05 63 1013.1
20260506100503 66 174 16.0 23.0 0.00 0.50 0.05 63 1012.7
20260506100004 67 158 14.0 22.0 0.00 0.50 0.05 63 1012.8
20260506095505 67 160 12.0 23.0 0.00 0.50 0.05 62 1012.9
20260506095008 67 172 14.0 26.0 0.00 0.50 0.05 63 1012.8
20260506094503 67 183 15.0 26.0 0.00 0.50 0.05 62 1012.9
20260506094003 67 190 13.0 19.0 0.00 0.50 0.05 63 1013.0
20260506093503 67 186 14.0 22.0 0.00 0.50 0.05 62 1012.7
20260506093004 66 179 13.0 22.0 0.00 0.50 0.05 63 1013.0
20260506092505 67 176 11.0 19.0 0.00 0.50 0.05 63 1013.0
20260506092005 66 168 10.0 19.0 0.00 0.50 0.05 63 1012.9
20260506091503 66 165 9.0 19.0 0.00 0.50 0.05 63 1012.9
20260506091003 66 160 9.0 16.0 0.00 0.50 0.05 64 1012.9
20260506090503 66 165 13.0 22.0 0.00 0.50 0.05 63 1013.0
20260506090005 65 169 14.0 22.0 0.00 0.50 0.05 63 1013.0
20260506085504 66 170 12.0 21.0 0.00 0.50 0.05 64 1012.9
20260506085005 66 170 13.0 21.0 0.00 0.50 0.05 63 1012.9
20260506084503 66 165 14.0 23.0 0.00 0.50 0.05 64 1012.8
20260506084003 65 166 13.0 23.0 0.00 0.50 0.05 63 1013.0
20260506083503 65 156 13.0 24.0 0.00 0.50 0.05 64 1012.8
20260506083003 65 140 11.0 24.0 0.00 0.50 0.05 64 1012.8
20260506082503 65 129 8.0 17.0 0.00 0.50 0.05 67 1012.9
20260506082004 65 136 10.0 23.0 0.01 0.50 0.05 67 1012.9
20260506081503 64 132 11.0 23.0 0.01 0.50 0.05 67 1012.7
20260506081003 64 132 12.0 24.0 0.01 0.50 0.05 66 1012.7
20260506080503 64 149 11.0 24.0 0.01 0.50 0.05 66 1012.7
20260506073503 64 165 14.0 26.0 0.01 0.50 0.05 69 1012.8
20260506073003 63 159 13.0 26.0 0.01 0.50 0.05 69 1012.6
20260506072503 63 157 13.0 23.0 0.01 0.50 0.05 69 1012.8
20260506072003 63 151 12.0 20.0 0.00 0.49 0.04 69 1012.8
20260506071503 63 154 9.0 19.0 0.00 0.50 0.04 70 1013.1
20260506071003 63 172 8.0 18.0 0.00 0.52 0.04 70 1012.9